�v������,,�����i�g�j,�����t���O,�g�[�i�g�j,�����t���O,,�����iMJ�j,�����t���O,�g�[�iMJ�j,�����t���O
2003/3/1,0:00:00,0,0,0.059,0,,0,0,2.2,0
2003/3/1,0:15:00,0,0,0,0,,0,0,0,0
2003/3/1,0:30:00,0,0,0.061,0,,0,0,2.2,0
2003/3/1,0:45:00,0,0,0,0,,0,0,0,0
2003/3/1,1:00:00,0,0,0.061,0,,0,0,2.2,0
2003/3/1,1:15:00,0,0,0,0,,0,0,0,0
2003/3/1,1:30:00,0,0,0.061,0,,0,0,2.2,0
2003/3/1,1:45:00,0,0,0,0,,0,0,0,0
2003/3/1,2:00:00,0,0,0.06,0,,0,0,2.2,0
2003/3/1,2:15:00,0,0,0,0,,0,0,0,0
2003/3/1,2:30:00,0,0,0.06,0,,0,0,2.2,0
2003/3/1,2:45:00,0,0,0,0,,0,0,0,0
2003/3/1,3:00:00,0,0,0.062,0,,0,0,2.3,0
2003/3/1,3:15:00,0,0,0.021,0,,0,0,0.8,0
2003/3/1,3:30:00,0,0,0.04,0,,0,0,1.5,0
2003/3/1,3:45:00,0,0,0.059,0,,0,0,2.2,0
2003/3/1,4:00:00,0,0,0,0,,0,0,0,0
2003/3/1,4:15:00,0,0,0.06,0,,0,0,2.2,0
2003/3/1,4:30:00,0,0,0,0,,0,0,0,0
2003/3/1,4:45:00,0,0,0.063,0,,0,0,2.3,0
2003/3/1,5:00:00,0,0,0.061,0,,0,0,2.2,0
2003/3/1,5:15:00,0,0,0,0,,0,0,0,0
2003/3/1,5:30:00,0,0,0.063,0,,0,0,2.3,0
2003/3/1,5:45:00,0,0,0.059,0,,0,0,2.2,0
2003/3/1,6:00:00,0,0,0,0,,0,0,0,0
2003/3/1,6:15:00,0,0,0.06,0,,0,0,2.2,0
2003/3/1,6:30:00,0,0,0.059,0,,0,0,2.1,0
2003/3/1,6:45:00,0,0,0,0,,0,0,0,0
2003/3/1,7:00:00,0,0,0.059,0,,0,0,2.2,0
2003/3/1,7:15:00,0,0,0.171,0,,0,0,6.3,0
2003/3/1,7:30:00,0,0,0.648,0,,0,0,23.7,0
2003/3/1,7:45:00,0.044,0,0.349,0,,1.6,0,12.8,0
2003/3/1,8:00:00,0.106,0,0.36,0,,3.9,0,13.2,0
2003/3/1,8:15:00,0.13,0,0.287,0,,4.8,0,10.5,0
2003/3/1,8:30:00,0.033,0,0.303,0,,1.2,0,11.1,0
2003/3/1,8:45:00,0,0,0.323,0,,0,0,11.9,0
2003/3/1,9:00:00,0,0,0.271,0,,0,0,10,0
2003/3/1,9:15:00,0.001,0,0.271,0,,0,0,9.9,0
2003/3/1,9:30:00,0.116,0,0.268,0,,4.3,0,9.8,0
2003/3/1,9:45:00,0.188,0,0.208,0,,6.9,0,7.7,0
2003/3/1,10:00:00,0.029,0,0.283,0,,1.1,0,10.3,0
2003/3/1,10:15:00,0.014,0,0.211,0,,0.5,0,7.8,0
2003/3/1,10:30:00,0,0,0.213,0,,0,0,7.8,0
2003/3/1,10:45:00,0,0,0.209,0,,0,0,7.7,0
2003/3/1,11:00:00,0,0,0.218,0,,0,0,8,0
2003/3/1,11:15:00,0,0,0.229,0,,0,0,8.5,0
2003/3/1,11:30:00,0,0,0.217,0,,0,0,7.9,0
2003/3/1,11:45:00,0,0,0.206,0,,0,0,7.6,0
2003/3/1,12:00:00,0,0,0.184,0,,0,0,6.8,0
2003/3/1,12:15:00,0,0,0.179,0,,0,0,6.5,0
2003/3/1,12:30:00,0,0,0.202,0,,0,0,7.5,0
2003/3/1,12:45:00,0,0,0.201,0,,0,0,7.5,0
2003/3/1,13:00:00,0,0,0.199,0,,0,0,7.3,0
2003/3/1,13:15:00,0,0,0.135,0,,0,0,5,0
2003/3/1,13:30:00,0,0,0,0,,0,0,0,0
2003/3/1,13:45:00,0,0,0,0,,0,0,0,0
2003/3/1,14:00:00,0,0,0,0,,0,0,0,0
2003/3/1,14:15:00,0.082,0,0,0,,3,0,0,0
2003/3/1,14:30:00,0.055,0,0,0,,2.1,0,0,0
2003/3/1,14:45:00,0.222,0,0,0,,8.1,0,0,0
2003/3/1,15:00:00,0.121,0,0,0,,4.4,0,0,0
2003/3/1,15:15:00,0.06,0,0,0,,2.2,0,0,0
2003/3/1,15:30:00,0.238,0,0,0,,8.7,0,0,0
2003/3/1,15:45:00,0,0,0,0,,0,0,0,0
2003/3/1,16:00:00,0,0,0,0,,0,0,0,0
2003/3/1,16:15:00,0,0,0.341,0,,0,0,12.5,0
2003/3/1,16:30:00,0.254,0,0.196,0,,9.3,0,7.2,0
2003/3/1,16:45:00,0.001,0,0.193,0,,0,0,7.2,0
2003/3/1,17:00:00,0,0,0.129,0,,0,0,4.8,0
2003/3/1,17:15:00,0,0,0.128,0,,0,0,4.8,0
2003/3/1,17:30:00,0,0,0.147,0,,0,0,5.4,0
2003/3/1,17:45:00,0,0,0.176,0,,0,0,6.4,0
2003/3/1,18:00:00,0,0,0.127,0,,0,0,4.6,0
2003/3/1,18:15:00,0.013,0,0.127,0,,0.5,0,4.7,0
2003/3/1,18:30:00,0,0,0.13,0,,0,0,4.8,0
2003/3/1,18:45:00,0,0,0.191,0,,0,0,7.1,0
2003/3/1,19:00:00,0,0,0.129,0,,0,0,4.7,0
2003/3/1,19:15:00,0.108,0,0.13,0,,3.9,0,4.8,0
2003/3/1,19:30:00,0,0,0.129,0,,0,0,4.7,0
2003/3/1,19:45:00,0,0,0.127,0,,0,0,4.6,0
2003/3/1,20:00:00,0,0,0.168,0,,0,0,6.1,0
2003/3/1,20:15:00,0,0,0.149,0,,0,0,5.4,0
2003/3/1,20:30:00,0,0,0.129,0,,0,0,4.8,0
2003/3/1,20:45:00,0,0,0.128,0,,0,0,4.7,0
2003/3/1,21:00:00,0,0,0.129,0,,0,0,4.7,0
2003/3/1,21:15:00,0,0,0.127,0,,0,0,4.6,0
2003/3/1,21:30:00,0.46,0,0.153,0,,16.9,0,5.7,0
2003/3/1,21:45:00,0.894,0,0.177,0,,32.7,0,6.5,0
2003/3/1,22:00:00,0.202,0,0.129,0,,7.4,0,4.7,0
2003/3/1,22:15:00,0,0,0.064,0,,0,0,2.3,0
2003/3/1,22:30:00,0,0,0,0,,0,0,0,0
2003/3/1,22:45:00,0,0,0,0,,0,0,0,0
2003/3/1,23:00:00,0,0,0,0,,0,0,0,0
2003/3/1,23:15:00,0,0,0,0,,0,0,0,0
2003/3/1,23:30:00,0,0,0,0,,0,0,0,0
2003/3/1,23:45:00,0,0,0,0,,0,0,0,0
2003/3/2,0:00:00,0,0,0,0,,0,0,0,0
2003/3/2,0:15:00,0,0,0,0,,0,0,0,0
2003/3/2,0:30:00,0,0,0,0,,0,0,0,0
2003/3/2,0:45:00,0,0,0,0,,0,0,0,0
2003/3/2,1:00:00,0,0,0,0,,0,0,0,0
2003/3/2,1:15:00,0,0,0,0,,0,0,0,0
2003/3/2,1:30:00,0,0,0,0,,0,0,0,0
2003/3/2,1:45:00,0,0,0,0,,0,0,0,0
2003/3/2,2:00:00,0,0,0,0,,0,0,0,0
2003/3/2,2:15:00,0,0,0,0,,0,0,0,0
2003/3/2,2:30:00,0,0,0,0,,0,0,0,0
2003/3/2,2:45:00,0,0,0,0,,0,0,0,0
2003/3/2,3:00:00,0,0,0,0,,0,0,0,0
2003/3/2,3:15:00,0,0,0,0,,0,0,0,0
2003/3/2,3:30:00,0,0,0,0,,0,0,0,0
2003/3/2,3:45:00,0,0,0,0,,0,0,0,0
2003/3/2,4:00:00,0,0,0,0,,0,0,0,0
2003/3/2,4:15:00,0,0,0,0,,0,0,0,0
2003/3/2,4:30:00,0,0,0,0,,0,0,0,0
2003/3/2,4:45:00,0,0,0,0,,0,0,0,0
2003/3/2,5:00:00,0,0,0,0,,0,0,0,0
2003/3/2,5:15:00,0,0,0,0,,0,0,0,0
2003/3/2,5:30:00,0,0,0,0,,0,0,0,0
2003/3/2,5:45:00,0,0,0,0,,0,0,0,0
2003/3/2,6:00:00,0,0,0,0,,0,0,0,0
2003/3/2,6:15:00,0,0,0,0,,0,0,0,0
2003/3/2,6:30:00,0,0,0,0,,0,0,0,0
2003/3/2,6:45:00,0,0,0.665,0,,0,0,24.4,0
2003/3/2,7:00:00,0,0,0.369,0,,0,0,13.6,0
2003/3/2,7:15:00,0,0,0.259,0,,0,0,9.5,0
2003/3/2,7:30:00,0,0,0.261,0,,0,0,9.6,0
2003/3/2,7:45:00,0,0,0.268,0,,0,0,9.9,0
2003/3/2,8:00:00,0,0,0.268,0,,0,0,9.7,0
2003/3/2,8:15:00,0,0,0.273,0,,0,0,10,0
2003/3/2,8:30:00,0.013,0,0.278,0,,0.5,0,10.2,0
2003/3/2,8:45:00,0.025,0,0.201,0,,0.9,0,7.3,0
2003/3/2,9:00:00,0.257,0,0.271,0,,9.4,0,9.9,0
2003/3/2,9:15:00,0,0,0.222,0,,0,0,8.1,0
2003/3/2,9:30:00,0,0,0.207,0,,0,0,7.5,0
2003/3/2,9:45:00,0,0,0.209,0,,0,0,7.7,0
2003/3/2,10:00:00,0,0,0.21,0,,0,0,7.7,0
2003/3/2,10:15:00,0.131,0,0.256,0,,4.8,0,9.3,0
2003/3/2,10:30:00,0.008,0,0.232,0,,0.3,0,8.5,0
2003/3/2,10:45:00,0,0,0.211,0,,0,0,7.7,0
2003/3/2,11:00:00,0,0,0.206,0,,0,0,7.5,0
2003/3/2,11:15:00,0,0,0.069,0,,0,0,2.5,0
2003/3/2,11:30:00,0.081,0,0.122,0,,3,0,4.5,0
2003/3/2,11:45:00,0,0,0.144,0,,0,0,5.3,0
2003/3/2,12:00:00,0,0,0.171,0,,0,0,6.3,0
2003/3/2,12:15:00,0.047,0,0.129,0,,1.7,0,4.7,0
2003/3/2,12:30:00,0.214,0,0.193,0,,7.8,0,7.1,0
2003/3/2,12:45:00,0.042,0,0.125,0,,1.5,0,4.6,0
2003/3/2,13:00:00,0,0,0.186,0,,0,0,6.8,0
2003/3/2,13:15:00,0,0,0.129,0,,0,0,4.7,0
2003/3/2,13:30:00,0.103,0,0.193,0,,3.7,0,7.1,0
2003/3/2,13:45:00,0,0,0.191,0,,0,0,6.9,0
2003/3/2,14:00:00,0.026,0,0.285,0,,1,0,10.4,0
2003/3/2,14:15:00,0,0,0.292,0,,0,0,10.7,0
2003/3/2,14:30:00,0,0,0.22,0,,0,0,8,0
2003/3/2,14:45:00,0,0,0.276,0,,0,0,10.2,0
2003/3/2,15:00:00,0,0,0.207,0,,0,0,7.7,0
2003/3/2,15:15:00,0,0,0.242,0,,0,0,8.9,0
2003/3/2,15:30:00,0,0,0.248,0,,0,0,9.1,0
2003/3/2,15:45:00,0,0,0.214,0,,0,0,7.8,0
2003/3/2,16:00:00,0,0,0.2,0,,0,0,7.3,0
2003/3/2,16:15:00,0,0,0.203,0,,0,0,7.5,0
2003/3/2,16:30:00,0,0,0.211,0,,0,0,7.8,0
2003/3/2,16:45:00,0,0,0.209,0,,0,0,7.7,0
2003/3/2,17:00:00,0,0,0.208,0,,0,0,7.7,0
2003/3/2,17:15:00,0,0,0.285,0,,0,0,10.5,0
2003/3/2,17:30:00,0.013,0,0.265,0,,0.5,0,9.8,0
2003/3/2,17:45:00,0,0,0.231,0,,0,0,8.5,0
2003/3/2,18:00:00,0,0,0.23,0,,0,0,8.5,0
2003/3/2,18:15:00,0.175,0,0.225,0,,6.4,0,8.3,0
2003/3/2,18:30:00,0.404,0,0.213,0,,14.8,0,7.8,0
2003/3/2,18:45:00,0,0,0.211,0,,0,0,7.8,0
2003/3/2,19:00:00,0.078,0,0.203,0,,2.9,0,7.5,0
2003/3/2,19:15:00,0.539,0,0.18,0,,19.7,0,6.6,0
2003/3/2,19:30:00,0.045,0,0.18,0,,1.7,0,6.6,0
2003/3/2,19:45:00,0.246,0,0.204,0,,9.1,0,7.5,0
2003/3/2,20:00:00,0.018,0,0.205,0,,0.7,0,7.5,0
2003/3/2,20:15:00,0.014,0,0.202,0,,0.5,0,7.5,0
2003/3/2,20:30:00,0.015,0,0.203,0,,0.5,0,7.5,0
2003/3/2,20:45:00,0.028,0,0.201,0,,1,0,7.4,0
2003/3/2,21:00:00,0.062,0,0.204,0,,2.3,0,7.5,0
2003/3/2,21:15:00,0.267,0,0.204,0,,9.9,0,7.4,0
2003/3/2,21:30:00,0,0,0.203,0,,0,0,7.5,0
2003/3/2,21:45:00,0,0,0.178,0,,0,0,6.5,0
2003/3/2,22:00:00,0.042,0,0.168,0,,1.5,0,6.1,0
2003/3/2,22:15:00,0,0,0.197,0,,0,0,7.2,0
2003/3/2,22:30:00,0.013,0,0.201,0,,0.5,0,7.4,0
2003/3/2,22:45:00,0,0,0.205,0,,0,0,7.5,0
2003/3/2,23:00:00,0,0,0.204,0,,0,0,7.5,0
2003/3/2,23:15:00,0,0,0.202,0,,0,0,7.5,0
2003/3/2,23:30:00,0,0,0.203,0,,0,0,7.5,0
2003/3/2,23:45:00,0,0,0.183,0,,0,0,6.7,0
2003/3/3,0:00:00,0.314,0,0.028,0,,11.5,0,1.1,0
2003/3/3,0:15:00,0.635,0,0.014,0,,23.3,0,0.6,0
2003/3/3,0:30:00,0.205,0,0.005,0,,7.5,0,0.2,0
2003/3/3,0:45:00,0,0,0,0,,0,0,0,0
2003/3/3,1:00:00,0,0,0,0,,0,0,0,0
2003/3/3,1:15:00,0,0,0,0,,0,0,0,0
2003/3/3,1:30:00,0,0,0,0,,0,0,0,0
2003/3/3,1:45:00,0,0,0,0,,0,0,0,0
2003/3/3,2:00:00,0,0,0,0,,0,0,0,0
2003/3/3,2:15:00,0,0,0,0,,0,0,0,0
2003/3/3,2:30:00,0,0,0,0,,0,0,0,0
2003/3/3,2:45:00,0,0,0,0,,0,0,0,0
2003/3/3,3:00:00,0,0,0,0,,0,0,0,0
2003/3/3,3:15:00,0,0,0,0,,0,0,0,0
2003/3/3,3:30:00,0,0,0,0,,0,0,0,0
2003/3/3,3:45:00,0,0,0,0,,0,0,0,0
2003/3/3,4:00:00,0,0,0,0,,0,0,0,0
2003/3/3,4:15:00,0,0,0,0,,0,0,0,0
2003/3/3,4:30:00,0,0,0,0,,0,0,0,0
2003/3/3,4:45:00,0,0,0.06,0,,0,0,2.2,0
2003/3/3,5:00:00,0,0,0,0,,0,0,0,0
2003/3/3,5:15:00,0,0,0,0,,0,0,0,0
2003/3/3,5:30:00,0,0,0,0,,0,0,0,0
2003/3/3,5:45:00,0,0,0.058,0,,0,0,2.1,0
2003/3/3,6:00:00,0,0,0,0,,0,0,0,0
2003/3/3,6:15:00,0,0,0,0,,0,0,0,0
2003/3/3,6:30:00,0,0,0.415,0,,0,0,15.2,0
2003/3/3,6:45:00,0,0,0.34,0,,0,0,12.5,0
2003/3/3,7:00:00,0,0,0.213,0,,0,0,7.8,0
2003/3/3,7:15:00,0.012,0,0.207,0,,0.5,0,7.5,0
2003/3/3,7:30:00,0.03,0,0.22,0,,1.1,0,8.1,0
2003/3/3,7:45:00,0.084,0,0.232,0,,3.1,0,8.5,0
2003/3/3,8:00:00,0.255,0,0.237,0,,9.3,0,8.7,0
2003/3/3,8:15:00,0.097,0,0.206,0,,3.6,0,7.6,0
2003/3/3,8:30:00,0.164,0,0.205,0,,6,0,7.5,0
2003/3/3,8:45:00,0.145,0,0.204,0,,5.3,0,7.5,0
2003/3/3,9:00:00,0,0,0.203,0,,0,0,7.4,0
2003/3/3,9:15:00,0,0,0.2,0,,0,0,7.3,0
2003/3/3,9:30:00,0.013,0,0.202,0,,0.5,0,7.5,0
2003/3/3,9:45:00,0,0,0.194,0,,0,0,7.1,0
2003/3/3,10:00:00,0,0,0.207,0,,0,0,7.5,0
2003/3/3,10:15:00,0,0,0.199,0,,0,0,7.2,0
2003/3/3,10:30:00,0.085,0,0.2,0,,3.1,0,7.3,0
2003/3/3,10:45:00,0.167,0,0.2,0,,6.1,0,7.3,0
2003/3/3,11:00:00,0.001,0,0.196,0,,0,0,7.2,0
2003/3/3,11:15:00,0,0,0.152,0,,0,0,5.6,0
2003/3/3,11:30:00,0,0,0.174,0,,0,0,6.4,0
2003/3/3,11:45:00,0,0,0.195,0,,0,0,7.1,0
2003/3/3,12:00:00,0,0,0.195,0,,0,0,7.2,0
2003/3/3,12:15:00,0.014,0,0.197,0,,0.5,0,7.2,0
2003/3/3,12:30:00,0.163,0,0.155,0,,6,0,5.8,0
2003/3/3,12:45:00,0.013,0,0.174,0,,0.5,0,6.4,0
2003/3/3,13:00:00,0,0,0.197,0,,0,0,7.2,0
2003/3/3,13:15:00,0,0,0.196,0,,0,0,7.2,0
2003/3/3,13:30:00,0,0,0.196,0,,0,0,7.3,0
2003/3/3,13:45:00,0,0,0.132,0,,0,0,4.8,0
2003/3/3,14:00:00,0,0,0.194,0,,0,0,7.2,0
2003/3/3,14:15:00,0,0,0.194,0,,0,0,7.2,0
2003/3/3,14:30:00,0,0,0.151,0,,0,0,5.6,0
2003/3/3,14:45:00,0,0,0.17,0,,0,0,6.2,0
2003/3/3,15:00:00,0,0,0.194,0,,0,0,7.1,0
2003/3/3,15:15:00,0,0,0.192,0,,0,0,7,0
2003/3/3,15:30:00,0,0,0.134,0,,0,0,5,0
2003/3/3,15:45:00,0,0,0.275,0,,0,0,10.1,0
2003/3/3,16:00:00,0,0,0.207,0,,0,0,7.5,0
2003/3/3,16:15:00,0,0,0.207,0,,0,0,7.6,0
2003/3/3,16:30:00,0,0,0.206,0,,0,0,7.6,0
2003/3/3,16:45:00,0,0,0.202,0,,0,0,7.4,0
2003/3/3,17:00:00,0,0,0.202,0,,0,0,7.5,0
2003/3/3,17:15:00,0.067,0,0.196,0,,2.5,0,7.2,0
2003/3/3,17:30:00,0,0,0.17,0,,0,0,6.2,0
2003/3/3,17:45:00,0,0,0.163,0,,0,0,6,0
2003/3/3,18:00:00,0,0,0.208,0,,0,0,7.6,0
2003/3/3,18:15:00,0,0,0.202,0,,0,0,7.4,0
2003/3/3,18:30:00,0,0,0.192,0,,0,0,6.9,0
2003/3/3,18:45:00,0,0,0.197,0,,0,0,7.2,0
2003/3/3,19:00:00,0,0,0.199,0,,0,0,7.3,0
2003/3/3,19:15:00,0.111,0,0.201,0,,4,0,7.4,0
2003/3/3,19:30:00,0.012,0,0.2,0,,0.5,0,7.4,0
2003/3/3,19:45:00,0.053,0,0.199,0,,2,0,7.3,0
2003/3/3,20:00:00,0.058,0,0.201,0,,2.1,0,7.4,0
2003/3/3,20:15:00,0,0,0.2,0,,0,0,7.3,0
2003/3/3,20:30:00,0.326,0,0.199,0,,12,0,7.2,0
2003/3/3,20:45:00,0.998,0,0.2,0,,36.6,0,7.4,0
2003/3/3,21:00:00,0.012,0,0.165,0,,0.4,0,6.1,0
2003/3/3,21:15:00,0.16,0,0.162,0,,5.9,0,6,0
2003/3/3,21:30:00,0,0,0.196,0,,0,0,7.2,0
2003/3/3,21:45:00,0.026,0,0.17,0,,0.9,0,6.2,0
2003/3/3,22:00:00,0.025,0,0.156,0,,0.9,0,5.7,0
2003/3/3,22:15:00,0,0,0.195,0,,0,0,7.2,0
2003/3/3,22:30:00,0.025,0,0.152,0,,0.9,0,5.5,0
2003/3/3,22:45:00,0.024,0,0.173,0,,0.9,0,6.4,0
2003/3/3,23:00:00,0.025,0,0.194,0,,0.9,0,7.2,0
2003/3/3,23:15:00,0,0,0.131,0,,0,0,4.9,0
2003/3/3,23:30:00,0.012,0,0.194,0,,0.4,0,7.1,0
2003/3/3,23:45:00,0.038,0,0.192,0,,1.4,0,7.1,0
2003/3/4,0:00:00,0,0,0.063,0,,0,0,2.3,0
2003/3/4,0:15:00,0,0,0,0,,0,0,0,0
2003/3/4,0:30:00,0,0,0,0,,0,0,0,0
2003/3/4,0:45:00,0,0,0,0,,0,0,0,0
2003/3/4,1:00:00,0,0,0,0,,0,0,0,0
2003/3/4,1:15:00,0,0,0,0,,0,0,0,0
2003/3/4,1:30:00,0,0,0,0,,0,0,0,0
2003/3/4,1:45:00,0,0,0,0,,0,0,0,0
2003/3/4,2:00:00,0,0,0,0,,0,0,0,0
2003/3/4,2:15:00,0,0,0,0,,0,0,0,0
2003/3/4,2:30:00,0,0,0,0,,0,0,0,0
2003/3/4,2:45:00,0,0,0,0,,0,0,0,0
2003/3/4,3:00:00,0,0,0,0,,0,0,0,0
2003/3/4,3:15:00,0,0,0,0,,0,0,0,0
2003/3/4,3:30:00,0,0,0,0,,0,0,0,0
2003/3/4,3:45:00,0,0,0,0,,0,0,0,0
2003/3/4,4:00:00,0,0,0,0,,0,0,0,0
2003/3/4,4:15:00,0,0,0,0,,0,0,0,0
2003/3/4,4:30:00,0,0,0,0,,0,0,0,0
2003/3/4,4:45:00,0,0,0,0,,0,0,0,0
2003/3/4,5:00:00,0,0,0,0,,0,0,0,0
2003/3/4,5:15:00,0,0,0,0,,0,0,0,0
2003/3/4,5:30:00,0,0,0.008,0,,0,0,0.3,0
2003/3/4,5:45:00,0,0,0.052,0,,0,0,1.9,0
2003/3/4,6:00:00,0,0,0,0,,0,0,0,0
2003/3/4,6:15:00,0,0,0,0,,0,0,0,0
2003/3/4,6:30:00,0,0,0,0,,0,0,0,0
2003/3/4,6:45:00,0.012,0,0.612,0,,0.4,0,22.4,0
2003/3/4,7:00:00,0.073,0,0.319,0,,2.7,0,11.7,0
2003/3/4,7:15:00,0.035,0,0.248,0,,1.3,0,9.1,0
2003/3/4,7:30:00,0,0,0.262,0,,0,0,9.7,0
2003/3/4,7:45:00,0,0,0.253,0,,0,0,9.3,0
2003/3/4,8:00:00,0,0,0.27,0,,0,0,9.9,0
2003/3/4,8:15:00,0.014,0,0.261,0,,0.5,0,9.6,0
2003/3/4,8:30:00,0.288,0,0.202,0,,10.6,0,7.4,0
2003/3/4,8:45:00,0.042,0,0.206,0,,1.5,0,7.6,0
2003/3/4,9:00:00,0.013,0,0.27,0,,0.5,0,9.8,0
2003/3/4,9:15:00,0,0,0.203,0,,0,0,7.4,0
2003/3/4,9:30:00,0,0,0.203,0,,0,0,7.5,0
2003/3/4,9:45:00,0,0,0.213,0,,0,0,7.8,0
2003/3/4,10:00:00,0.16,0,0.252,0,,5.9,0,9.3,0
2003/3/4,10:15:00,0.025,0,0.082,0,,1,0,3.1,0
2003/3/4,10:30:00,0.271,0,0.17,0,,10,0,6.2,0
2003/3/4,10:45:00,0,0,0.04,0,,0,0,1.5,0
2003/3/4,11:00:00,0,0,0,0,,0,0,0,0
2003/3/4,11:15:00,0,0,0,0,,0,0,0,0
2003/3/4,11:30:00,0,0,0,0,,0,0,0,0
2003/3/4,11:45:00,0.188,0,0,0,,6.9,0,0,0
2003/3/4,12:00:00,0.015,0,0.354,0,,0.6,0,13,0
2003/3/4,12:15:00,0,0,0.203,0,,0,0,7.4,0
2003/3/4,12:30:00,0.121,0,0.202,0,,4.4,0,7.4,0
2003/3/4,12:45:00,0.233,0,0.198,0,,8.6,0,7.2,0
2003/3/4,13:00:00,0,0,0.196,0,,0,0,7.2,0
2003/3/4,13:15:00,0,0,0.195,0,,0,0,7.2,0
2003/3/4,13:30:00,0.089,0,0.195,0,,3.3,0,7.2,0
2003/3/4,13:45:00,0.045,0,0.131,0,,1.7,0,4.8,0
2003/3/4,14:00:00,0,0,0.192,0,,0,0,7.1,0
2003/3/4,14:15:00,0.099,0,0.194,0,,3.7,0,7.2,0
2003/3/4,14:30:00,0.252,0,0.196,0,,9.3,0,7.2,0
2003/3/4,14:45:00,0.082,0,0.155,0,,3,0,5.7,0
2003/3/4,15:00:00,0,0,0.169,0,,0,0,6.2,0
2003/3/4,15:15:00,0,0,0.197,0,,0,0,7.2,0
2003/3/4,15:30:00,0,0,0.193,0,,0,0,7.2,0
2003/3/4,15:45:00,0,0,0.385,0,,0,0,14,0
2003/3/4,16:00:00,0.056,0,0.302,0,,2.1,0,11,0
2003/3/4,16:15:00,0.014,0,0.247,0,,0.5,0,9.1,0
2003/3/4,16:30:00,0,0,0.279,0,,0,0,10.3,0
2003/3/4,16:45:00,0,0,0.277,0,,0,0,10.2,0
2003/3/4,17:00:00,0,0,0.254,0,,0,0,9.3,0
2003/3/4,17:15:00,0,0,0.283,0,,0,0,10.4,0
2003/3/4,17:30:00,0,0,0.3,0,,0,0,11,0
2003/3/4,17:45:00,0,0,0.253,0,,0,0,9.3,0
2003/3/4,18:00:00,0,0,0.25,0,,0,0,9.2,0
2003/3/4,18:15:00,0,0,0.255,0,,0,0,9.4,0
2003/3/4,18:30:00,0,0,0.259,0,,0,0,9.5,0
2003/3/4,18:45:00,0,0,0.25,0,,0,0,9.1,0
2003/3/4,19:00:00,0,0,0.251,0,,0,0,9.2,0
2003/3/4,19:15:00,0,0,0.256,0,,0,0,9.4,0
2003/3/4,19:30:00,0.013,0,0,0,,0.5,0,0,0
2003/3/4,19:45:00,0.028,0,0.123,0,,1,0,4.5,0
2003/3/4,20:00:00,0,0,0.139,0,,0,0,5.1,0
2003/3/4,20:15:00,0,0,0.175,0,,0,0,6.5,0
2003/3/4,20:30:00,0,0,0.126,0,,0,0,4.5,0
2003/3/4,20:45:00,0,0,0.186,0,,0,0,6.9,0
2003/3/4,21:00:00,0,0,0.125,0,,0,0,4.6,0
2003/3/4,21:15:00,0,0,0.189,0,,0,0,7,0
2003/3/4,21:30:00,0,0,0.127,0,,0,0,4.6,0
2003/3/4,21:45:00,0,0,0.188,0,,0,0,6.9,0
2003/3/4,22:00:00,0.148,0,0.131,0,,5.4,0,4.9,0
2003/3/4,22:15:00,0.19,0,0.196,0,,7,0,7.2,0
2003/3/4,22:30:00,0.376,0,0.189,0,,13.7,0,6.9,0
2003/3/4,22:45:00,0.212,0,0.131,0,,7.8,0,4.8,0
2003/3/4,23:00:00,0.637,0,0.188,0,,23.4,0,6.9,0
2003/3/4,23:15:00,0.274,0,0.189,0,,10.1,0,6.9,0
2003/3/4,23:30:00,0.426,0,0.173,0,,15.7,0,6.4,0
2003/3/4,23:45:00,0.076,0,0.144,0,,2.8,0,5.3,0
2003/3/5,0:00:00,0,0,0.189,0,,0,0,6.9,0
2003/3/5,0:15:00,0,0,0.125,0,,0,0,4.6,0
2003/3/5,0:30:00,0.013,0,0,0,,0.5,0,0,0
2003/3/5,0:45:00,0,0,0,0,,0,0,0,0
2003/3/5,1:00:00,0,0,0,0,,0,0,0,0
2003/3/5,1:15:00,0,0,0,0,,0,0,0,0
2003/3/5,1:30:00,0,0,0,0,,0,0,0,0
2003/3/5,1:45:00,0,0,0,0,,0,0,0,0
2003/3/5,2:00:00,0,0,0,0,,0,0,0,0
2003/3/5,2:15:00,0,0,0,0,,0,0,0,0
2003/3/5,2:30:00,0,0,0,0,,0,0,0,0
2003/3/5,2:45:00,0,0,0,0,,0,0,0,0
2003/3/5,3:00:00,0,0,0,0,,0,0,0,0
2003/3/5,3:15:00,0,0,0,0,,0,0,0,0
2003/3/5,3:30:00,0,0,0,0,,0,0,0,0
2003/3/5,3:45:00,0,0,0,0,,0,0,0,0
2003/3/5,4:00:00,0,0,0,0,,0,0,0,0
2003/3/5,4:15:00,0,0,0,0,,0,0,0,0
2003/3/5,4:30:00,0,0,0,0,,0,0,0,0
2003/3/5,4:45:00,0,0,0,0,,0,0,0,0
2003/3/5,5:00:00,0,0,0,0,,0,0,0,0
2003/3/5,5:15:00,0,0,0,0,,0,0,0,0
2003/3/5,5:30:00,0,0,0,0,,0,0,0,0
2003/3/5,5:45:00,0,0,0,0,,0,0,0,0
2003/3/5,6:00:00,0,0,0,0,,0,0,0,0
2003/3/5,6:15:00,0,0,0,0,,0,0,0,0
2003/3/5,6:30:00,0,0,0.134,0,,0,0,4.9,0
2003/3/5,6:45:00,0.014,0,0.624,0,,0.5,0,22.9,0
2003/3/5,7:00:00,0.145,0,0.339,0,,5.3,0,12.5,0
2003/3/5,7:15:00,0,0,0.288,0,,0,0,10.6,0
2003/3/5,7:30:00,0,0,0.301,0,,0,0,11.1,0
2003/3/5,7:45:00,0,0,0.267,0,,0,0,9.8,0
2003/3/5,8:00:00,0,0,0.262,0,,0,0,9.6,0
2003/3/5,8:15:00,0,0,0.257,0,,0,0,9.4,0
2003/3/5,8:30:00,0.204,0,0,0,,7.5,0,0,0
2003/3/5,8:45:00,0,0,0.119,0,,0,0,4.4,0
2003/3/5,9:00:00,0.013,0,0.121,0,,0.5,0,4.5,0
2003/3/5,9:15:00,0.016,0,0.127,0,,0.6,0,4.7,0
2003/3/5,9:30:00,0,0,0.182,0,,0,0,6.6,0
2003/3/5,9:45:00,0.216,0,0.123,0,,7.9,0,4.5,0
2003/3/5,10:00:00,0,0,0.123,0,,0,0,4.6,0
2003/3/5,10:15:00,0,0,0.16,0,,0,0,5.9,0
2003/3/5,10:30:00,0,0,0.146,0,,0,0,5.4,0
2003/3/5,10:45:00,0.105,0,0.183,0,,3.8,0,6.7,0
2003/3/5,11:00:00,0.133,0,0.122,0,,4.8,0,4.5,0
2003/3/5,11:15:00,0.158,0,0.118,0,,5.8,0,4.4,0
2003/3/5,11:30:00,0.111,0,0.06,0,,4.1,0,2.2,0
2003/3/5,11:45:00,0,0,0.124,0,,0,0,4.5,0
2003/3/5,12:00:00,0,0,0.12,0,,0,0,4.4,0
2003/3/5,12:15:00,0.013,0,0.12,0,,0.5,0,4.4,0
2003/3/5,12:30:00,0.089,0,0.116,0,,3.3,0,4.2,0
2003/3/5,12:45:00,0.2,0,0.065,0,,7.3,0,2.4,0
2003/3/5,13:00:00,0.013,0,0,0,,0.5,0,0,0
2003/3/5,13:15:00,0,0,0,0,,0,0,0,0
2003/3/5,13:30:00,0,0,0,0,,0,0,0,0
2003/3/5,13:45:00,0,0,0,0,,0,0,0,0
2003/3/5,14:00:00,0,0,0,0,,0,0,0,0
2003/3/5,14:15:00,0,0,0,0,,0,0,0,0
2003/3/5,14:30:00,0,0,0,0,,0,0,0,0
2003/3/5,14:45:00,0,0,0,0,,0,0,0,0
2003/3/5,15:00:00,0,0,0,0,,0,0,0,0
2003/3/5,15:15:00,0,0,0,0,,0,0,0,0
2003/3/5,15:30:00,0.013,0,0,0,,0.4,0,0,0
2003/3/5,15:45:00,0.015,0,0,0,,0.5,0,0,0
2003/3/5,16:00:00,0,0,0.604,0,,0,0,22.2,0
2003/3/5,16:15:00,0,0,0.336,0,,0,0,12.3,0
2003/3/5,16:30:00,0,0,0.236,0,,0,0,8.7,0
2003/3/5,16:45:00,0.073,0,0.214,0,,2.7,0,7.9,0
2003/3/5,17:00:00,0,0,0.254,0,,0,0,9.3,0
2003/3/5,17:15:00,0,0,0.206,0,,0,0,7.6,0
2003/3/5,17:30:00,0,0,0.257,0,,0,0,9.3,0
2003/3/5,17:45:00,0.028,0,0.285,0,,1,0,10.5,0
2003/3/5,18:00:00,0,0,0.203,0,,0,0,7.5,0
2003/3/5,18:15:00,0.108,0,0.203,0,,3.9,0,7.4,0
2003/3/5,18:30:00,0.013,0,0.203,0,,0.5,0,7.5,0
2003/3/5,18:45:00,0,0,0.216,0,,0,0,7.9,0
2003/3/5,19:00:00,0,0,0.252,0,,0,0,9.2,0
2003/3/5,19:15:00,0,0,0.189,0,,0,0,7,0
2003/3/5,19:30:00,0.013,0,0.257,0,,0.5,0,9.4,0
2003/3/5,19:45:00,0,0,0.253,0,,0,0,9.3,0
2003/3/5,20:00:00,0,0,0.251,0,,0,0,9.2,0
2003/3/5,20:15:00,0,0,0.203,0,,0,0,7.4,0
2003/3/5,20:30:00,0.086,0,0.259,0,,3.2,0,9.5,0
2003/3/5,20:45:00,0.207,0,0.197,0,,7.6,0,7.2,0
2003/3/5,21:00:00,0.087,0,0.2,0,,3.2,0,7.4,0
2003/3/5,21:15:00,0,0,0.21,0,,0,0,7.7,0
2003/3/5,21:30:00,0.058,0,0.249,0,,2.1,0,9.2,0
2003/3/5,21:45:00,0,0,0.196,0,,0,0,7.2,0
2003/3/5,22:00:00,0,0,0.196,0,,0,0,7.2,0
2003/3/5,22:15:00,0,0,0.226,0,,0,0,8.4,0
2003/3/5,22:30:00,0,0,0.236,0,,0,0,8.7,0
2003/3/5,22:45:00,0,0,0.195,0,,0,0,7.2,0
2003/3/5,23:00:00,0,0,0.198,0,,0,0,7.3,0
2003/3/5,23:15:00,0,0,0.199,0,,0,0,7.3,0
2003/3/5,23:30:00,0,0,0.211,0,,0,0,7.7,0
2003/3/5,23:45:00,0,0,0.241,0,,0,0,8.8,0
2003/3/6,0:00:00,0,0,0.214,0,,0,0,7.8,0
2003/3/6,0:15:00,0,0,0.197,0,,0,0,7.2,0
2003/3/6,0:30:00,0,0,0.196,0,,0,0,7.2,0
2003/3/6,0:45:00,0,0,0.196,0,,0,0,7.2,0
2003/3/6,1:00:00,0,0,0,0,,0,0,0,0
2003/3/6,1:15:00,0,0,0,0,,0,0,0,0
2003/3/6,1:30:00,0,0,0,0,,0,0,0,0
2003/3/6,1:45:00,0,0,0,0,,0,0,0,0
2003/3/6,2:00:00,0,0,0,0,,0,0,0,0
2003/3/6,2:15:00,0,0,0,0,,0,0,0,0
2003/3/6,2:30:00,0,0,0,0,,0,0,0,0
2003/3/6,2:45:00,0,0,0,0,,0,0,0,0
2003/3/6,3:00:00,0,0,0,0,,0,0,0,0
2003/3/6,3:15:00,0,0,0,0,,0,0,0,0
2003/3/6,3:30:00,0,0,0,0,,0,0,0,0
2003/3/6,3:45:00,0,0,0,0,,0,0,0,0
2003/3/6,4:00:00,0,0,0.062,0,,0,0,2.3,0
2003/3/6,4:15:00,0,0,0,0,,0,0,0,0
2003/3/6,4:30:00,0,0,0,0,,0,0,0,0
2003/3/6,4:45:00,0,0,0.06,0,,0,0,2.2,0
2003/3/6,5:00:00,0,0,0,0,,0,0,0,0
2003/3/6,5:15:00,0,0,0,0,,0,0,0,0
2003/3/6,5:30:00,0,0,0.06,0,,0,0,2.2,0
2003/3/6,5:45:00,0,0,0,0,,0,0,0,0
2003/3/6,6:00:00,0,0,0.06,0,,0,0,2.2,0
2003/3/6,6:15:00,0,0,0,0,,0,0,0,0
2003/3/6,6:30:00,0.013,0,0.465,0,,0.5,0,17,0
2003/3/6,6:45:00,0.114,0,0.315,0,,4.2,0,11.6,0
2003/3/6,7:00:00,0.131,0,0.241,0,,4.8,0,8.9,0
2003/3/6,7:15:00,0,0,0.226,0,,0,0,8.4,0
2003/3/6,7:30:00,0,0,0.203,0,,0,0,7.5,0
2003/3/6,7:45:00,0.014,0,0.254,0,,0.5,0,9.3,0
2003/3/6,8:00:00,0,0,0.194,0,,0,0,7.2,0
2003/3/6,8:15:00,0.03,0,0.196,0,,1.1,0,7.1,0
2003/3/6,8:30:00,0.312,0,0.194,0,,11.5,0,7.2,0
2003/3/6,8:45:00,0.014,0,0.191,0,,0.5,0,7,0
2003/3/6,9:00:00,0.084,0,0.186,0,,3.1,0,6.9,0
2003/3/6,9:15:00,0.179,0,0.147,0,,6.6,0,5.5,0
2003/3/6,9:30:00,0.396,0,0.172,0,,14.6,0,6.3,0
2003/3/6,9:45:00,0.208,0,0.189,0,,7.6,0,6.9,0
2003/3/6,10:00:00,0.3,0,0.127,0,,11,0,4.6,0
2003/3/6,10:15:00,0.03,0,0.189,0,,1.1,0,6.9,0
2003/3/6,10:30:00,0,0,0.127,0,,0,0,4.7,0
2003/3/6,10:45:00,0.039,0,0.128,0,,1.4,0,4.7,0
2003/3/6,11:00:00,0,0,0.19,0,,0,0,6.9,0
2003/3/6,11:15:00,0.013,0,0.127,0,,0.5,0,4.7,0
2003/3/6,11:30:00,0,0,0.187,0,,0,0,6.9,0
2003/3/6,11:45:00,0,0,0.125,0,,0,0,4.6,0
2003/3/6,12:00:00,0,0,0.187,0,,0,0,6.8,0
2003/3/6,12:15:00,0,0,0.127,0,,0,0,4.6,0
2003/3/6,12:30:00,0.016,0,0.123,0,,0.6,0,4.5,0
2003/3/6,12:45:00,0.016,0,0.187,0,,0.6,0,6.8,0
2003/3/6,13:00:00,0,0,0.125,0,,0,0,4.6,0
2003/3/6,13:15:00,0.054,0,0.124,0,,2,0,4.5,0
2003/3/6,13:30:00,0.042,0,0.168,0,,1.5,0,6.2,0
2003/3/6,13:45:00,0.015,0,0.144,0,,0.5,0,5.3,0
2003/3/6,14:00:00,0.08,0,0.126,0,,2.9,0,4.6,0
2003/3/6,14:15:00,0.201,0,0.122,0,,7.4,0,4.6,0
2003/3/6,14:30:00,0.042,0,0.149,0,,1.6,0,5.5,0
2003/3/6,14:45:00,0,0,0.16,0,,0,0,5.9,0
2003/3/6,15:00:00,0.013,0,0.123,0,,0.5,0,4.6,0
2003/3/6,15:15:00,0,0,0.125,0,,0,0,4.6,0
2003/3/6,15:30:00,0.013,0,0.128,0,,0.5,0,4.7,0
2003/3/6,15:45:00,0,0,0.183,0,,0,0,6.7,0
2003/3/6,16:00:00,0,0,0.126,0,,0,0,4.7,0
2003/3/6,16:15:00,0,0,0.124,0,,0,0,4.5,0
2003/3/6,16:30:00,0,0,0.123,0,,0,0,4.5,0
2003/3/6,16:45:00,0.871,0,0.191,0,,32,0,7,0
2003/3/6,17:00:00,0.412,0,0.126,0,,15.1,0,4.6,0
2003/3/6,17:15:00,0.298,0,0.123,0,,11,0,4.4,0
2003/3/6,17:30:00,0,0,0.123,0,,0,0,4.5,0
2003/3/6,17:45:00,0.013,0,0.185,0,,0.5,0,6.8,0
2003/3/6,18:00:00,0,0,0.126,0,,0,0,4.6,0
2003/3/6,18:15:00,0,0,0.126,0,,0,0,4.6,0
2003/3/6,18:30:00,0.013,0,0.13,0,,0.5,0,4.7,0
2003/3/6,18:45:00,0.054,0,0.183,0,,2,0,6.8,0
2003/3/6,19:00:00,0.053,0,0.126,0,,1.9,0,4.5,0
2003/3/6,19:15:00,0,0,0.124,0,,0,0,4.5,0
2003/3/6,19:30:00,0,0,0.186,0,,0,0,6.9,0
2003/3/6,19:45:00,0.236,0,0.127,0,,8.7,0,4.7,0
2003/3/6,20:00:00,0.001,0,0.125,0,,0,0,4.6,0
2003/3/6,20:15:00,0,0,0.187,0,,0,0,6.9,0
2003/3/6,20:30:00,0,0,0.125,0,,0,0,4.6,0
2003/3/6,20:45:00,0,0,0.126,0,,0,0,4.7,0
2003/3/6,21:00:00,0,0,0.188,0,,0,0,7,0
2003/3/6,21:15:00,0.083,0,0.124,0,,3.1,0,4.6,0
2003/3/6,21:30:00,0,0,0.187,0,,0,0,6.9,0
2003/3/6,21:45:00,0,0,0.127,0,,0,0,4.7,0
2003/3/6,22:00:00,0,0,0.185,0,,0,0,6.8,0
2003/3/6,22:15:00,0,0,0.123,0,,0,0,4.6,0
2003/3/6,22:30:00,0,0,0.187,0,,0,0,6.9,0
2003/3/6,22:45:00,0,0,0.125,0,,0,0,4.6,0
2003/3/6,23:00:00,0,0,0.138,0,,0,0,5.1,0
2003/3/6,23:15:00,0,0,0.174,0,,0,0,6.4,0
2003/3/6,23:30:00,0.15,0,0.127,0,,5.5,0,4.7,0